map of TKF home
Great Circle Mapper logo
TKF - Airport
Location
City:  Truckee, California, United States
Name:Truckee-Tahoe Airport
ICAO / IATA:KTRK / TKF
FAA:TRK

Details
Type:Airport (Airfield)
Use:Public/Civil
Latitude:3919'12"N (39.320042)
Longitude:12008'22"W (-120.139562)
Datum:WGS 1984
Elevation:5901 ft (1799 m)
Runways:2
Longest:7000 × 100 ft (2134 × 30.5 m), paved

Time
Time Zone:UTC-8 (DST-7)
Local Time:

Weather
METAR:KTRK 210735Z AUTO 17005KT 7SM SCT090 16/07 A3017 RMK AO2
TAF:KTRK 210524Z 2106/2206 VRB03KT P6SM SCT025 BKN080
FM210900 VRB03KT P6SM VCSH SCT025 BKN070
FM211600 14006KT P6SM VCSH SCT030 BKN070
FM212200 28007KT P6SM SCT040 BKN090
FM220200 VRB04KT P6SM SCT050 SCT090
AMD NOT SKED 2106/2112

Related Locations
Nearby:
Farthest:FTU: 11197 mi / 18020 km
Tolagnaro [Maurillac (Fort Dauphin)], MG

Find:

   beyond  
but within

Other Information
Maps:
NOTAMs:
Links:
Sources:

  
flag of United States
flag of California
  

Airport Diagram

Airport diagram for TKF

Airport diagram PDF

Sectional Chart

Flight Planning
at skyvector.com

Satellite Image

Google Maps Satellite View

 

Copyright © 2004-2014 Karl L. Swartz. All rights reserved.
The Great Circle Mapper name and logo are trademarks of the Great Circle Mapper.
All other trademarks mentioned herein belong to their respective owners.
Please see credits for attibutions and further copyright information.

  Follow gcmap on Facebook Follow gcmap on Twitter

hCard Microformat

Geo Microformat